Grand Canyon, AZ

1:30 AM MST on January 20, 2018 (GMT -0700)
Grand Canyon National Park

Weather History for KGCN - May, 2013

Change the Weather History Date:

Thursday, May 16, 2013

  Actual Average Record
Temperature  
Mean Temperature 54 °F -  
Max Temperature 75 °F 69 °F 80 °F (1976)
Min Temperature 33 °F 30 °F 25 °F (1998)
Degree Days  
Heating Degree Days 11    
Growing Degree Days 4 (Base 50)    
Moisture  
Dew Point 15 °F    
Average Humidity 23    
Maximum Humidity 40    
Minimum Humidity 7    
Precipitation  
Precipitation 0.00 in - - ()
Sea Level Pressure  
Sea Level Pressure 29.86 in    
Wind  
Wind Speed 6 mph (SW)    
Max Wind Speed 25 mph    
Max Gust Speed 38 mph    
Visibility 10 miles    
Events      
Averages and records for this station are not official NWS values.
T = Trace of Precipitation, MM = Missing Value Source: NWS Daily Summary

Daily Weather History Graph

Daily Weather History Graph

Search for Another Location

Airport or City:

Trip Planner

Search our weather history database for the weather conditions in past years. The results will help you decide how hot, cold, wet, or windy it might be!

Date:

Astronomy

May. 16, 2013 Rise Set
Actual Time 5:21 AM MST 7:28 PM MST
Civil Twilight 4:53 AM MST 7:57 PM MST
Nautical Twilight 4:18 AM MST 8:32 PM MST
Astronomical Twilight 3:40 AM MST 9:09 PM MST
Moon 10:55 AM MST (5/16) No Moon Set
Length of Visible Light 15h 03m
Length of Day
14h 06m
Waxing Crescent, 36% of the Moon is Illuminated
May 16
Waxing Crescent
May 17
First Quarter
May 24
Full
May 31
Last Quarter
Jun 8
New

Hourly Weather History & Observations

Time (MST) Temp. Dew Point Humidity Pressure Visibility Wind Dir Wind Speed Gust Speed Precip Events Conditions
12:54 AM 39.0 °F 8.1 °F 28% 29.91 in 10.0 mi Calm Calm - N/A   Clear
1:54 AM 37.0 °F 9.0 °F 31% 29.91 in 10.0 mi Calm Calm - N/A   Clear
2:54 AM 35.1 °F 9.0 °F 34% 29.91 in 10.0 mi Calm Calm - N/A   Clear
3:54 AM 33.1 °F 10.0 °F 38% 29.92 in 10.0 mi Calm Calm - N/A   Clear
4:54 AM 34.0 °F 12.0 °F 40% 29.91 in 10.0 mi Calm Calm - N/A   Clear
5:54 AM 34.0 °F 12.0 °F 40% 29.93 in 10.0 mi Calm Calm - N/A   Clear
6:10 AM 37.4 °F 14.0 °F 38% 30.12 in 10.0 mi Calm Calm - N/A   Partly Cloudy
6:54 AM 50.0 °F 19.0 °F 29% 29.89 in 10.0 mi Calm Calm - N/A   Clear
7:54 AM 62.1 °F 18.0 °F 18% 29.87 in 10.0 mi SSW 13.8 mph 20.7 mph N/A   Clear
8:54 AM 66.0 °F 21.9 °F 19% 29.88 in 10.0 mi SSW 10.4 mph 21.9 mph N/A   Clear
9:54 AM 69.1 °F 21.9 °F 17% 29.85 in 10.0 mi SSW 15.0 mph 26.5 mph N/A   Clear
10:54 AM 71.1 °F 19.9 °F 14% 29.86 in 10.0 mi SW 15.0 mph 25.3 mph N/A   Clear
12:54 PM 75.0 °F 18.0 °F 12% 29.86 in 10.0 mi SSW 12.7 mph 28.8 mph N/A   Clear
1:54 PM 75.9 °F 17.1 °F 11% 29.84 in 10.0 mi SSW 16.1 mph 26.5 mph N/A   Clear
3:54 PM 75.9 °F 12.9 °F 9% 29.80 in 10.0 mi SW 25.3 mph 38.0 mph N/A   Clear
4:54 PM 75.9 °F 8.1 °F 7% 29.80 in 10.0 mi SW 19.6 mph 29.9 mph N/A   Clear
5:54 PM 72.0 °F 10.0 °F 9% 29.81 in 10.0 mi SW 21.9 mph 29.9 mph N/A   Clear
6:54 PM 68.0 °F 14.0 °F 12% 29.78 in 10.0 mi SW 12.7 mph - N/A   Clear
7:54 PM 62.1 °F 14.0 °F 15% 29.77 in 10.0 mi SW 10.4 mph - N/A   Clear
8:54 PM 59.0 °F 16.0 °F 19% 29.78 in 10.0 mi SW 5.8 mph - N/A   Clear
9:54 PM 51.1 °F 17.1 °F 26% 29.81 in 10.0 mi SW 4.6 mph - N/A   Clear
10:54 PM 53.1 °F 18.0 °F 25% 29.80 in 10.0 mi WSW 6.9 mph - N/A   Clear
11:54 PM 50.0 °F 19.0 °F 29% 29.79 in 10.0 mi SW 4.6 mph - N/A   Clear